Time,TemperatureF,DewpointF,PressureIn,WindDirection,WindDirectionDegrees,WindSpeedMPH,WindSpeedGustMPH,Humidity,HourlyPrecipIn,Conditions,Clouds,dailyrainin,SoftwareType,DateUTC
2013-01-31 08:03:00,46.0,-99.9,30.28,West,279,6.0,8.0,-999,-99.99,,,-99.99,,2013-01-31 14:03:00,
2013-01-31 08:12:00,47.0,-99.9,30.27,West,269,7.0,8.0,-999,-99.99,,,-99.99,,2013-01-31 14:12:00,
2013-01-31 08:22:00,47.0,-99.9,30.28,West,272,6.0,7.0,-999,-99.99,,,-99.99,,2013-01-31 14:22:00,
2013-01-31 08:32:00,49.0,-99.9,30.28,West,271,6.0,7.0,-999,-99.99,,,-99.99,,2013-01-31 14:32:00,
2013-01-31 08:42:00,49.0,-99.9,30.28,West,265,6.0,7.0,-999,-99.99,,,-99.99,,2013-01-31 14:42:00,
2013-01-31 08:52:00,51.0,-99.9,30.29,West,263,6.0,7.0,-999,-99.99,,,-99.99,,2013-01-31 14:52:00,
2013-01-31 09:03:00,51.0,-99.9,30.30,West,259,5.0,7.0,-999,-99.99,,,-99.99,,2013-01-31 15:03:00,
2013-01-31 09:12:00,52.0,-99.9,30.29,West,264,5.0,6.0,-999,-99.99,,,-99.99,,2013-01-31 15:12:00,
2013-01-31 09:23:00,52.0,-99.9,30.30,WSW,248,6.0,7.0,-999,-99.99,,,-99.99,,2013-01-31 15:23:00,
2013-01-31 09:32:00,54.0,-99.9,30.30,SW,234,5.0,6.0,-999,-99.99,,,-99.99,,2013-01-31 15:32:00,
2013-01-31 09:42:00,56.0,-99.9,30.31,SW,231,4.0,6.0,-999,-99.99,,,-99.99,,2013-01-31 15:42:00,
2013-01-31 09:52:00,57.0,-99.9,30.31,SW,223,4.0,5.0,-999,-99.99,,,-99.99,,2013-01-31 15:52:00,
2013-01-31 10:04:00,60.0,-99.9,30.32,SSW,201,5.0,7.0,-999,-99.99,,,-99.99,,2013-01-31 16:04:00,
2013-01-31 10:13:00,59.0,-99.9,30.31,SSW,203,5.0,7.0,-999,-99.99,,,-99.99,,2013-01-31 16:13:00,
2013-01-31 10:22:00,60.0,-99.9,30.32,South,190,5.0,6.0,-999,-99.99,,,-99.99,,2013-01-31 16:22:00,
2013-01-31 10:33:00,59.0,-99.9,30.31,South,187,5.0,6.0,-999,-99.99,,,-99.99,,2013-01-31 16:33:00,
2013-01-31 10:42:00,59.0,-99.9,30.32,South,181,4.0,6.0,-999,-99.99,,,-99.99,,2013-01-31 16:42:00,
2013-01-31 10:52:00,60.0,-99.9,30.32,SSW,193,5.0,6.0,-999,-99.99,,,-99.99,,2013-01-31 16:52:00,
2013-01-31 11:03:00,60.0,-99.9,30.32,South,180,4.0,5.0,-999,-99.99,,,-99.99,,2013-01-31 17:03:00,
2013-01-31 11:13:00,60.0,-99.9,30.32,South,181,5.0,6.0,-999,-99.99,,,-99.99,,2013-01-31 17:13:00,
2013-01-31 11:23:00,60.0,-99.9,30.33,South,184,6.0,7.0,-999,-99.99,,,-99.99,,2013-01-31 17:23:00,
2013-01-31 11:32:00,60.0,-99.9,30.33,South,179,6.0,7.0,-999,-99.99,,,-99.99,,2013-01-31 17:32:00,
2013-01-31 11:44:00,60.0,-99.9,30.33,South,179,7.0,8.0,-999,-99.99,,,-99.99,,2013-01-31 17:44:00,
2013-01-31 11:53:00,60.0,-99.9,30.33,South,173,8.0,8.0,-999,-99.99,,,-99.99,,2013-01-31 17:53:00,
2013-01-31 12:03:00,60.0,-99.9,30.33,South,173,7.0,8.0,-999,-99.99,,,-99.99,,2013-01-31 18:03:00,
2013-01-31 12:13:00,60.0,-99.9,30.32,SSE,167,6.0,8.0,-999,-99.99,,,-99.99,,2013-01-31 18:13:00,
2013-01-31 12:22:00,60.0,-99.9,30.32,SSE,163,6.0,7.0,-999,-99.99,,,-99.99,,2013-01-31 18:22:00,
2013-01-31 12:32:00,60.0,-99.9,30.31,SSE,167,6.0,8.0,-999,-99.99,,,-99.99,,2013-01-31 18:32:00,
2013-01-31 12:43:00,60.0,-99.9,30.31,SSE,162,7.0,7.0,-999,-99.99,,,-99.99,,2013-01-31 18:43:00,
2013-01-31 12:52:00,60.0,-99.9,30.31,SSE,157,6.0,7.0,-999,-99.99,,,-99.99,,2013-01-31 18:52:00,
2013-01-31 13:03:00,61.0,-99.9,30.31,SSE,162,7.0,8.0,-999,-99.99,,,-99.99,,2013-01-31 19:03:00,
2013-01-31 13:13:00,61.0,-99.9,30.31,SSE,162,6.0,7.0,-999,-99.99,,,-99.99,,2013-01-31 19:13:00,
2013-01-31 13:22:00,61.0,-99.9,30.30,SSE,160,7.0,8.0,-999,-99.99,,,-99.99,,2013-01-31 19:22:00,
2013-01-31 13:33:00,61.0,-99.9,30.29,SSE,158,7.0,8.0,-999,-99.99,,,-99.99,,2013-01-31 19:33:00,
2013-01-31 13:43:00,61.0,-99.9,30.28,SSE,151,6.0,8.0,-999,-99.99,,,-99.99,,2013-01-31 19:43:00,
2013-01-31 13:52:00,61.0,-99.9,30.27,SSE,150,8.0,9.0,-999,-99.99,,,-99.99,,2013-01-31 19:52:00,
2013-01-31 14:03:00,61.0,-99.9,30.27,SSE,150,9.0,10.0,-999,-99.99,,,-99.99,,2013-01-31 20:03:00,
2013-01-31 14:12:00,61.0,-99.9,30.27,SSE,150,9.0,10.0,-999,-99.99,,,-99.99,,2013-01-31 20:12:00,
2013-01-31 14:22:00,61.0,-99.9,30.27,SE,146,9.0,10.0,-999,-99.99,,,-99.99,,2013-01-31 20:22:00,
2013-01-31 14:32:00,61.0,-99.9,30.26,SE,144,10.0,11.0,-999,-99.99,,,-99.99,,2013-01-31 20:32:00,
2013-01-31 14:42:00,61.0,-99.9,30.25,SE,144,10.0,11.0,-999,-99.99,,,-99.99,,2013-01-31 20:42:00,
2013-01-31 14:52:00,61.0,-99.9,30.24,SE,140,10.0,11.0,-999,-99.99,,,-99.99,,2013-01-31 20:52:00,
2013-01-31 15:02:00,61.0,-99.9,30.24,SE,144,12.0,13.0,-999,-99.99,,,-99.99,,2013-01-31 21:02:00,
2013-01-31 15:13:00,61.0,-99.9,30.24,SE,140,12.0,13.0,-999,-99.99,,,-99.99,,2013-01-31 21:13:00,
2013-01-31 15:22:00,61.0,-99.9,30.23,SE,140,12.0,13.0,-999,-99.99,,,-99.99,,2013-01-31 21:22:00,
2013-01-31 15:32:00,61.0,-99.9,30.24,SE,134,11.0,14.0,-999,-99.99,,,-99.99,,2013-01-31 21:32:00,
2013-01-31 15:42:00,61.0,-99.9,30.23,SE,130,12.0,13.0,-999,-99.99,,,-99.99,,2013-01-31 21:42:00,
2013-01-31 15:52:00,61.0,-99.9,30.23,SE,130,12.0,14.0,-999,-99.99,,,-99.99,,2013-01-31 21:52:00,
2013-01-31 16:03:00,61.0,-99.9,30.23,SE,131,13.0,14.0,-999,-99.99,,,-99.99,,2013-01-31 22:03:00,
2013-01-31 16:11:00,61.0,-99.9,30.22,SE,134,13.0,15.0,-999,-99.99,,,-99.99,,2013-01-31 22:11:00,
2013-01-31 16:22:00,62.0,-99.9,30.23,SE,131,13.0,16.0,-999,-99.99,,,-99.99,,2013-01-31 22:22:00,
2013-01-31 16:33:00,62.0,-99.9,30.23,SE,132,13.0,15.0,-999,-99.99,,,-99.99,,2013-01-31 22:33:00,
2013-01-31 16:42:00,62.0,-99.9,30.23,SE,130,15.0,16.0,-999,-99.99,,,-99.99,,2013-01-31 22:42:00,
2013-01-31 16:52:00,62.0,-99.9,30.22,SE,128,14.0,17.0,-999,-99.99,,,-99.99,,2013-01-31 22:52:00,
2013-01-31 17:03:00,62.0,-99.9,30.22,SE,126,13.0,16.0,-999,-99.99,,,-99.99,,2013-01-31 23:03:00,
2013-01-31 17:12:00,62.0,-99.9,30.22,SE,126,13.0,15.0,-999,-99.99,,,-99.99,,2013-01-31 23:12:00,
2013-01-31 17:22:00,62.0,-99.9,30.22,SE,127,14.0,16.0,-999,-99.99,,,-99.99,,2013-01-31 23:22:00,
2013-01-31 17:32:00,62.0,-99.9,30.22,SE,130,14.0,17.0,-999,-99.99,,,-99.99,,2013-01-31 23:32:00,
2013-01-31 17:43:00,62.0,-99.9,30.22,SE,132,15.0,17.0,-999,-99.99,,,-99.99,,2013-01-31 23:43:00,
2013-01-31 17:52:00,62.0,-99.9,30.22,SE,128,13.0,17.0,-999,-99.99,,,-99.99,,2013-01-31 23:52:00,
2013-01-31 18:02:00,62.0,-99.9,30.22,SE,129,13.0,15.0,-999,-99.99,,,-99.99,,2013-02-01 00:02:00,
2013-01-31 18:11:00,62.0,-99.9,30.22,SE,128,14.0,16.0,-999,-99.99,,,-99.99,,2013-02-01 00:11:00,
2013-01-31 18:22:00,62.0,-99.9,30.22,SE,128,15.0,17.0,-999,-99.99,,,-99.99,,2013-02-01 00:22:00,
2013-01-31 18:32:00,62.0,-99.9,30.22,SE,129,14.0,16.0,-999,-99.99,,,-99.99,,2013-02-01 00:32:00,
2013-01-31 18:42:00,62.0,-99.9,30.21,SE,127,14.0,16.0,-999,-99.99,,,-99.99,,2013-02-01 00:42:00,
2013-01-31 18:52:00,62.0,-99.9,30.22,SE,126,14.0,15.0,-999,-99.99,,,-99.99,,2013-02-01 00:52:00,
2013-01-31 19:01:00,62.0,-99.9,30.22,SE,126,14.0,15.0,-999,-99.99,,,-99.99,,2013-02-01 01:01:00,
2013-01-31 19:12:00,62.0,-99.9,30.22,SE,128,13.0,15.0,-999,-99.99,,,-99.99,,2013-02-01 01:12:00,
2013-01-31 19:22:00,62.0,-99.9,30.22,SE,128,15.0,16.0,-999,-99.99,,,-99.99,,2013-02-01 01:22:00,
2013-01-31 19:32:00,62.0,-99.9,30.22,SE,127,13.0,14.0,-999,-99.99,,,-99.99,,2013-02-01 01:32:00,
2013-01-31 19:42:00,62.0,-99.9,30.22,SE,132,13.0,15.0,-999,-99.99,,,-99.99,,2013-02-01 01:42:00,
2013-01-31 19:52:00,62.0,-99.9,30.24,SE,135,12.0,13.0,-999,-99.99,,,-99.99,,2013-02-01 01:52:00,
2013-01-31 20:02:00,62.0,-99.9,30.24,SE,133,13.0,15.0,-999,-99.99,,,-99.99,,2013-02-01 02:02:00,
2013-01-31 20:12:00,62.0,-99.9,30.24,SE,132,12.0,13.0,-999,-99.99,,,-99.99,,2013-02-01 02:12:00,
2013-01-31 20:22:00,62.0,-99.9,30.24,SE,131,12.0,14.0,-999,-99.99,,,-99.99,,2013-02-01 02:22:00,
2013-01-31 20:32:00,62.0,-99.9,30.26,SE,132,12.0,14.0,-999,-99.99,,,-99.99,,2013-02-01 02:32:00,
2013-01-31 20:42:00,62.0,-99.9,30.26,SE,131,11.0,13.0,-999,-99.99,,,-99.99,,2013-02-01 02:42:00,
2013-01-31 20:52:00,62.0,-99.9,30.26,SE,130,11.0,13.0,-999,-99.99,,,-99.99,,2013-02-01 02:52:00,
2013-01-31 21:02:00,62.0,-99.9,30.26,SE,131,11.0,12.0,-999,-99.99,,,-99.99,,2013-02-01 03:02:00,
2013-01-31 21:12:00,62.0,-99.9,30.26,SE,130,11.0,13.0,-999,-99.99,,,-99.99,,2013-02-01 03:12:00,
2013-01-31 21:22:00,62.0,-99.9,30.26,SE,128,10.0,12.0,-999,-99.99,,,-99.99,,2013-02-01 03:22:00,
2013-01-31 21:33:00,62.0,-99.9,30.27,SE,133,10.0,11.0,-999,-99.99,,,-99.99,,2013-02-01 03:33:00,
2013-01-31 21:42:00,62.0,-99.9,30.27,SE,136,9.0,11.0,-999,-99.99,,,-99.99,,2013-02-01 03:42:00,
2013-01-31 21:52:00,62.0,-99.9,30.27,SE,134,9.0,11.0,-999,-99.99,,,-99.99,,2013-02-01 03:52:00,
2013-01-31 22:02:00,62.0,-99.9,30.27,SE,138,9.0,11.0,-999,-99.99,,,-99.99,,2013-02-01 04:02:00,
2013-01-31 22:11:00,62.0,-99.9,30.28,SE,141,9.0,10.0,-999,-99.99,,,-99.99,,2013-02-01 04:11:00,
2013-01-31 22:22:00,62.0,-99.9,30.28,SE,143,9.0,10.0,-999,-99.99,,,-99.99,,2013-02-01 04:22:00,
2013-01-31 22:32:00,62.0,-99.9,30.29,SE,146,9.0,10.0,-999,-99.99,,,-99.99,,2013-02-01 04:32:00,
2013-01-31 22:42:00,61.0,-99.9,30.28,SSE,152,10.0,11.0,-999,-99.99,,,-99.99,,2013-02-01 04:42:00,
2013-01-31 22:52:00,61.0,-99.9,30.27,SSE,154,9.0,12.0,-999,-99.99,,,-99.99,,2013-02-01 04:52:00,
2013-01-31 23:03:00,61.0,-99.9,30.28,SSE,150,8.0,9.0,-999,-99.99,,,-99.99,,2013-02-01 05:03:00,
2013-01-31 23:12:00,61.0,-99.9,30.27,SSE,149,8.0,9.0,-999,-99.99,,,-99.99,,2013-02-01 05:12:00,
2013-01-31 23:22:00,61.0,-99.9,30.27,SE,144,7.0,8.0,-999,-99.99,,,-99.99,,2013-02-01 05:22:00,
2013-01-31 23:32:00,61.0,-99.9,30.28,SSE,155,7.0,8.0,-999,-99.99,,,-99.99,,2013-02-01 05:32:00,
2013-01-31 23:42:00,61.0,-99.9,30.28,SSE,150,7.0,8.0,-999,-99.99,,,-99.99,,2013-02-01 05:42:00,
2013-01-31 23:52:00,61.0,-99.9,30.29,SSE,152,7.0,7.0,-999,-99.99,,,-99.99,,2013-02-01 05:52:00,